Mud Run 2014

Overall Finish List

May 10, 2014


Results By Speed River Timing.

U10 Female

Place Name City Bib No Gender Chip Time Gun Time
1 Ella X 22 F 13:01.9 13:05.3
2 Brogan MacIsaac 6 F 13:11.5 13:11.5
3 Teagan Mellor 1 F 13:43.2 13:43.5
4 Tessa Van Gageldonk 20 F 14:58.4 15:00.8
5 Emily Kaucher 15 F 15:08.4 15:08.4
6 Hanna Langenberg 8 F 15:38.0 15:38.6
7 Sabrina Staveley 10 F 15:41.9 15:41.9
8 Yasemeen Hatami 82 F 15:51.7 15:51.7
9 Charleigh Goldberg Burlington 4 F 16:21.1 16:21.1
10 Brooklyn Goldberg 5 F 16:45.6 16:45.6
11 Greer Sheppard 7 F 17:17.0 17:17.0
12 Kiera Boote 9 F 17:26.6 17:28.4
13 Aubrey Lynch 18 F 19:01.5 19:01.5
14 Megan Blackwood 21 F 19:54.7 19:57.5
15 Taylor Farranto 3 F 20:00.0 20:03.1
16 Rachel Perrino 11 F 21:39.6 21:39.6
17 Grace Cook 14 F 23:00.9 23:02.8
18 Unknown Partic. 297 297 M 26:14.0 26:14.0
 

U10 Male

Place Name City Bib No Gender Chip Time Gun Time
1 Lex Coakley 12 M 11:13.7 11:13.7
2 Gavin Reggio 42 M 11:22.0 11:22.0
3 Gabe Dyer 47 M 11:41.5 11:41.5
4 Griffin Moore 52 M 11:44.1 11:45.2
5 Christopher Swanston 40 M 11:53.8 11:53.8
6 Rhys Hanson 77 M 11:58.0 11:58.0
7 Calvin Melanson 66 M 12:48.9 12:51.0
8 Timothy Burns 39 M 12:51.8 12:51.8
9 Aaron Stafford 67 M 12:51.4 12:53.5
10 Nathan French 61 M 13:08.4 13:11.7
11 Tyler Syragakis 62 M 13:23.1 13:23.1
12 Brayden Chan-Carusone 43 M 13:23.9 13:25.0
13 Ryan Turner 33 M 13:25.4 13:26.0
14 Emmett 60 M 13:27.1 13:27.3
15 Lee Watson 49 M 13:30.6 13:30.6
16 Eli Stack 32 M 13:34.5 13:36.8
17 Reese Sheppard 34 M 13:43.2 13:43.2
18 Morgan Gregory 59 M 13:56.0 13:56.0
19 Ayden Agius 79 M 14:30.1 14:30.5
20 Joshua Penton 78 M 14:38.6 14:39.8
21 Warren Saville 58 M 14:43.0 14:45.3
22 Carson Kaucher 46 M 15:05.3 15:06.0
23 Cole Elms 63 M 15:12.5 15:14.6
24 Nathan Balliu 26 M 15:38.5 15:39.5
25 Teague Chan-Carusone 44 M 15:40.3 15:43.5
26 Nathan Daneliak 70 M 15:42.4 15:44.5
27 Oliver Daneliak 69 M 16:00.0 16:02.5
28 Sam Hrycenko 35 M 16:30.2 16:30.7
29 Rogan Simon 76 M 16:31.1 16:31.1
30 Kyle Farranto 31 M 17:06.9 17:08.0
31 Sebastian Gubacsi 53 M 17:09.2 17:12.2
32 Sean Melanson 65 M 17:13.7 17:16.3
33 Jacob Wilks 64 M 17:15.9 17:17.6
34 Tyler Bulmer 37 M 17:32.3 17:32.3
35 Ethan Wysocki 28 M 17:39.3 17:40.4
36 Adam Dydynski 30 M 17:51.0 17:51.0
37 Keaton Butler 50 M 17:57.1 17:58.5
38 Archie Kelsey 74 M 19:01.9 19:04.3
39 Ryland Burns 38 M 19:53.8 19:53.8
40 Ashton Melis 57 M 19:55.3 19:55.3
41 Filip Dydynski 29 M 20:07.8 20:09.2
42 Evan Cook 45 M 20:54.6 20:54.6
43 Avi Raina 68 M 21:18.2 21:19.1
44 Nicholas Gubacsi 54 M 21:29.9 21:29.9
45 Attila Gubacsi 55 M 21:30.2 21:30.2
46 Cole McGean 75 M 22:19.0 22:20.7
 

U13 Female

Place Name City Bib No Gender Chip Time Gun Time
1 Brittany Pan 96 F 17:53.7 17:54.0
2 Lola Bater 88 F 18:54.4 18:55.7
3 Avery Irwin 93 F 20:02.6 20:03.5
4 Mckay Lauren 329 F 20:06.2 20:09.8
5 Grace Ditzend 130 F 20:45.3 20:45.3
6 Esme Ourique 83 F 21:03.1 21:09.3
7 Leek Claire 289 F 21:04.8 21:10.0
8 Rylee Crowley 87 F 22:31.8 22:35.5
9 Sara Boucher 84 F 22:34.5 22:38.8
10 Eh Sheemoo 218 F 22:51.6 22:53.3
11 Kyle Amy 234 F 23:18.8 23:23.4
12 Victoria Ditzend 85 F 23:36.4 23:36.4
13 Stephenson Jordyn 220 F 23:36.3 23:37.9
14 Olivia Colman 86 F 23:45.1 23:45.1
15 Kyleigh Daneliak 95 F 23:51.0 23:53.8
16 Kadic Merima 254 F 24:04.2 24:05.5
17 Skyleigh Dorsey 157 F 24:04.5 24:06.6
18 Chesbro Amy 221 F 24:09.7 24:09.7
19 Abdurahman Nayma 176 F 24:43.2 24:43.2
20 Ademi Valentina 174 F 24:43.3 24:43.3
21 Madison Blackwood 97 F 24:46.4 24:47.4
22 Megan Marshall 94 F 24:53.8 24:55.1
23 Katja Diez 98 F 25:35.7 25:36.3
24 Bond Shatia 247 F 25:36.9 25:36.9
25 Shimizu Kaya 205 F 25:46.7 25:56.1
26 Mayer Zoli 287 F 25:51.6 25:58.0
27 Yousefi Nilay 166 F 27:20.5 27:25.6
28 Grils Emma 185 F 27:20.6 27:25.7
29 Smith Taylor 315 F 27:26.0 27:30.6
30 Blair Alexis 310 F 27:26.7 27:31.1
31 Bah Isatu 226 F 27:57.4 28:00.8
32 Mcewan Abby 313 F 28:00.9 28:00.9
33 Arquelle Staveley 89 F 28:01.6 28:01.6
34 Macdougall Megyn 320 F 27:58.1 28:02.8
35 Abbey James 321 F 28:25.4 28:33.4
36 Huynh Tracey 280 F 29:06.7 29:06.7
37 Bahjo 209 F 29:09.3 29:19.1
38 Bessey Jessica 327 F 29:22.3 29:27.2
39 Partridge Victoria 195 F 29:36.4 29:36.4
40 Davis Ashley 235 F 29:47.4 29:53.9
41 Jensen Kierra 214 F 29:45.4 29:54.5
42 Gills Stephanie 244 F 29:55.8 29:55.8
43 Mahmood Maruwa 231 F 29:50.7 30:00.1
44 Ricker Kaitlyn 335 F 29:56.0 30:03.6
45 Haredo Qamar 172 F 30:05.9 30:05.9
46 Ricker Kendra 336 F 29:59.4 30:07.3
47 Maughn Kenya 190 F 30:06.5 30:31.7
48 Cieplucha-Chees Andromeda 294 F 30:29.0 30:34.2
49 Lungaro Cadence 319 F 30:32.1 30:40.9
50 Hamilton Rebecca 200 F 30:17.1 30:41.8
51 Afaq Yumna 253 F 30:39.3 30:42.8
52 Jesso Serenity 333 F 30:35.0 30:43.1
53 Buist Lauren 334 F 30:35.0 30:44.2
54 Evelyn Reggio 90 F 30:52.5 30:52.5
55 Brown Emiy 322 F 30:58.2 30:58.2
56 Gardner Jane 189 F 30:53.0 31:00.8
57 Chu Tasmin 188 F 30:59.8 31:05.9
58 Leggot Rosie 326 F 31:10.6 31:15.3
59 Thompson Sydney 186 F 31:18.6 31:25.0
60 Ali Mahnoor 275 F 31:25.7 31:27.3
61 Syeda Ali Nabela 298 F 31:43.0 31:47.4
62 Arlen Amelia 332 F 31:55.3 32:03.9
63 Geroux Jaidyn 201 F 32:38.1 33:06.3
64 O'Hara Cooke Lane 288 F 33:01.9 33:11.3
65 Eisenberg Emily 286 F 33:58.4 34:08.5
66 Hirsi Adam Najma 295 F 34:42.1 34:42.1
67 Sklepowich Megan 300 F 34:34.8 34:42.4
68 Premi Ciara 187 F 34:46.2 34:46.2
69 Mohamed Fatema 182 F 34:59.0 34:59.0
70 Nguyen Nancy 167 F 35:01.9 35:01.9
71 Le Shayla 165 F 35:00.1 35:02.9
72 Nyirarvkundo Yeshi 171 F 35:03.0 35:03.0
73 Heng Jeamie 283 F 35:07.5 35:17.5
74 Nguyen Jenny 284 F 35:18.7 35:18.7
75 Owen Coombs Bailey 272 F 35:13.0 35:19.9
76 Dield Toni 184 F 35:14.9 35:20.2
77 Duong Jenny 302 F 35:21.1 35:21.1
78 Oeun Christina 281 F 35:22.2 35:22.2
79 Cobey-Broad Lynnea 303 F 35:17.1 35:23.7
80 Christoffersen Anna 314 F 35:33.0 35:44.6
81 Bergie Brittney 181 F 36:11.0 36:15.3
82 Taber Rachel 179 F 36:15.5 36:15.5
83 Whitehouse MacKenzie 164 F 36:10.1 36:17.5
84 Skye Raven 163 F 36:44.3 36:44.3
85 Ashleigh Healey Kayla 325 F 36:36.0 36:45.2
86 Mohamed Asha 168 F 36:47.6 36:47.6
87 Rama Frida 306 F 36:45.0 36:51.9
88 Tamia Butler 91 F 36:54.2 36:56.5
89 Muto Sabrina 249 F 36:53.7 37:02.5
90 West Mikayla 246 F 37:03.1 37:03.1
91 Steriopoulos Julia 213 F 37:06.4 37:16.1
92 Mallard Kate 250 F 37:16.3 37:16.3
93 Prior Kendall 324 F 37:47.4 37:56.1
94 Oddson Jessica 330 F 37:48.2 37:56.2
95 Rogal Alliyah 199 F 38:22.0 38:47.4
96 Hart Brooke 193 F 38:21.9 38:47.4
97 Millben Summer 197 F 38:22.9 38:47.6
98 Leggott Emily 198 F 38:24.3 38:48.6
99 Macphail Jacy-Lee 194 F 38:24.7 38:49.6
100 Friesen Rena 308 F 38:47.2 38:53.4
 
Place Name City Bib No Gender Chip Time Gun Time
101 Gibbs Olivia 309 F 38:48.2 38:53.7
102 Van Loon Thea 292 F 39:07.6 39:12.6
103 Wong Mimi 290 F 39:06.8 39:16.6
104 Brow Shyanne 183 F 39:17.7 39:17.7
105 Ly Irene 285 F 39:16.4 39:26.4
106 Chau Kimberly 276 F 40:40.8 40:44.0
107 Fleming Angelica 268 F 40:41.5 40:44.0
108 Mcleod Kaitlynn 215 F 40:47.5 40:57.8
109 Moreau Haily 245 F 41:40.3 41:40.3
110 Anne Gairns Candice 317 F 42:32.0 42:41.6
111 Mcintee Bethany 318 F 42:32.8 42:41.9
112 Shazidi Layba 258 F 43:01.2 43:05.2
113 Noor Alsah 277 F 43:02.6 43:05.5
114 Abdulraheem Amani 269 F 43:04.2 43:06.5
115 Butt Noor 251 F 43:01.7 43:08.1
116 Mahmood Noor Ul Huda 274 F 43:06.7 43:08.9
117 Agnihotri Ananya 256 F 43:06.3 43:10.2
118 Siddiqi Maaham 278 F 43:07.9 43:11.2
119 Deol Gurreet 267 F 43:22.8 43:28.3
120 Deol Tavleen 265 F 43:22.9 43:28.4
121 Bahatti Andleeb 299 F 43:59.9 43:59.9
122 Lori Miller 144 M 44:03.2 44:03.2
123 Kamal Zuha 263 F 44:28.5 44:32.6
124 Saggu Simran 260 F 44:26.0 44:32.7
125 Soeun Jessica 261 F 45:19.9 45:26.9
126 L'Homme Bethany 177 F 45:31.9 45:31.9
127 Lepenye Mercedesz 162 F 45:33.3 45:33.3
128 Blacklock Gianna 216 F 45:36.4 45:39.7
129 Jones Olivia 227 F 45:38.8 45:42.0
130 Augier Arianna 217 F 45:39.2 45:42.6
131 Meldrum Maisley 222 F 45:39.8 45:43.3
132 Cibbasi Fatemeh 180 F 45:44.7 45:44.7
133 Derouchie Jazmen 204 F 45:35.0 45:45.7
134 Abdulraheem Baneem 252 F 46:09.1 46:11.9
135 Yahaya Jawada Zainab 279 F 46:09.8 46:12.2
136 Gibrin Zakirah 232 F 46:34.5 46:34.5
137 Longboat Tianna 224 F 48:38.7 48:41.3
138 Osei Kiana 225 F 48:39.6 48:41.9
139 Khular Kajols 266 F 49:18.1 49:21.7
140 Barooj Shumaim 271 F 49:21.1 49:24.3
141 Singh Riny 264 F 49:21.2 49:24.9
142 Deol Geetkamal 270 F 49:31.9 49:35.8
143 Baig Rabia 257 F 49:34.0 49:36.8
144 Wilson Abby 228 F 54:12.0 54:14.0
145 K'Nyaw Rosalie 219 F 54:16.8 54:16.8
146 Abid Iqra 259 F 54:58.5 55:01.1
 

U13 Male

Place Name City Bib No Gender Chip Time Gun Time
1 Brandon Doogan 153 M 12:23.8 12:23.8
2 Aaron Canfield 111 M 15:31.6 15:32.4
3 Sasha Hanson 128 M 16:23.4 16:23.4
4 Caleb Canfield 112 M 16:25.7 16:26.3
5 Isak Fransson 117 M 16:27.3 16:28.8
6 Andrew Latham 118 M 17:26.3 17:27.4
7 Liam Bauer 125 M 17:26.8 17:27.5
8 Ruben Jansen Burlington 102 M 17:55.0 17:55.0
9 Olaf Jansen 81 M 18:17.8 18:18.5
10 Jack Ditzend 108 M 18:18.5 18:18.5
11 Mac Levesque 109 M 18:52.9 18:55.8
12 Fraser Brock 126 M 19:49.0 19:50.3
13 Teagan Brock 127 M 19:54.9 19:55.9
14 Kaleb Whittington 105 M 20:04.0 20:10.2
15 Gavin Jameson 123 M 20:18.7 20:18.7
16 Spencer Knox 110 M 22:04.6 22:05.7
17 Gabriel Irwin 120 M 22:05.2 22:06.0
18 Daniel Strong 124 M 22:30.4 22:30.4
19 Duncan Turner 106 M 23:54.2 24:00.5
20 Henry Jessome 107 M 24:10.9 24:11.7
21 Cole Brunton 100 M 24:22.8 24:22.8
22 Cameron Sagar 115 M 25:19.7 25:19.7
23 Riley Brunton 101 M 25:55.7 25:55.7
24 Anthony X 113 M 25:56.4 25:56.4
25 Aidan Stewart 121 M 27:19.9 27:24.5
26 Erik Pan 129 M 27:29.0 27:30.1
27 Jason Fijan 122 M 28:58.4 28:59.5
28 Farid Hatami 137 M 30:35.7 30:35.7
29 Aidan Miller 99 M 44:00.6 44:00.6
30 Braydan Deakin 114 M 1:31:26.1 1:31:26.1
31 Sanjay Sagar 116 M 1:41:32.3 1:41:32.3
 

Adult Female

Place Name City Bib No Gender Chip Time Gun Time
1 Tyandra Bulmer 131 F 20:04.4 20:04.4
2 Sarah Ledwidge Ancaster 133 F 20:19.8 20:19.8
3 Martha Tweedie 136 F 20:32.6 20:32.6
4 Sharon Jansen 145 M 21:43.0 21:43.0
5 Alisha Fiuza 132 F 22:14.8 22:14.8
 

Adult Male

Place Name City Bib No Gender Chip Time Gun Time
1 Graeme Farrand 139 M 17:37.1 17:37.1
2 Jack Dyer 140 M 18:59.8 18:59.8
3 Avesh Raina 143 M 19:46.9 19:46.9
4 Brian Blackwood 142 M 24:50.8 24:50.8